This is the latest recevied weather packets stored in our database for station/object KY0TEQ-13. If no packets are shown the sender has not sent any weather packets the latest 10 day(s).
| Time | Temp. | Humidity | Pressure | Rain* | Wind** | Luminosity | Snow |
|---|---|---|---|---|---|---|---|
| 1788674823 | 16.11° C | 41% | 1309.1 hPa | 0 mm | - | 0 W/m² | - |
| 1788674521 | 16.11° C | 41% | 1308.9 hPa | 0 mm | - | 0 W/m² | - |
| 1788674215 | 15° C | 43% | 1309.1 hPa | 0 mm | - | 0 W/m² | - |
| 1788673911 | 15° C | 44% | 1309 hPa | 0 mm | - | 0 W/m² | - |
| 1788673606 | 16.11° C | 42% | 1309 hPa | 0 mm | - | 0 W/m² | - |
| 1788673301 | 16.67° C | 41% | 1309.3 hPa | 0 mm | - | 0 W/m² | - |
| 1788672997 | 16.67° C | 41% | 1309.1 hPa | 0 mm | - | 0 W/m² | - |
| 1788672692 | 16.67° C | 41% | 1309 hPa | 0 mm | - | 0 W/m² | - |
| 1788672387 | 16.67° C | 41% | 1309 hPa | 0 mm | - | 0 W/m² | - |
| 1788672084 | 17.22° C | 40% | 1308.9 hPa | 0 mm | - | 0 W/m² | - |
| 1788671780 | 17.22° C | 39% | 1308.9 hPa | 0 mm | - | 0 W/m² | - |
| 1788671475 | 17.78° C | 38% | 1309.1 hPa | 0 mm | - | 0 W/m² | - |
| 1788671170 | 18.33° C | 36% | 1309 hPa | 0 mm | - | 0 W/m² | - |
| 1788670865 | 17.22° C | 38% | 1308.9 hPa | 0 mm | - | 0 W/m² | - |
| 1788670563 | 16.11° C | 41% | 1308.9 hPa | 0 mm | - | 0 W/m² | - |
| 1788670259 | 16.67° C | 39% | 1309 hPa | 0 mm | - | 0 W/m² | - |
| 1788669954 | 16.11° C | 40% | 1309 hPa | 0 mm | - | 0 W/m² | - |
| 1788669649 | 17.22° C | 37% | 1309.1 hPa | 0 mm | - | 0 W/m² | - |
| 1788669345 | 17.78° C | 37% | 1309 hPa | 0 mm | - | 0 W/m² | - |
| 1788669041 | 16.67° C | 39% | 1309.1 hPa | 0 mm | - | 0 W/m² | - |
| 1788668740 | 16.11° C | 40% | 1308.8 hPa | 0 mm | - | 0 W/m² | - |
| 1788668435 | 16.11° C | 40% | 1309 hPa | 0 mm | - | 0 W/m² | - |
| 1788668131 | 16.67° C | 38% | 1308.6 hPa | 0 mm | - | 0 W/m² | - |
| 1788667831 | 17.78° C | 35% | 1308.9 hPa | 0 mm | - | 0 W/m² | - |
| 1788667521 | 18.33° C | 35% | 1308.6 hPa | 0 mm | - | 0 W/m² | - |
* Rain latest hour (hover to see other rain measurements)
** Current wind speed in m/s (hover to see current wind gust speed)